Temperature
15 15 15 14 15 15 15 15 15 15 15 15 16 16 16 16 16 16 16 16 16 16 16 17 17 17 17 17 17 17 17 17 17 17 17 17 17 17 17 17 17 17 17
15 15 15 14 15 15 15 15 15 15 15 15 15 15 15 15 16 16 16 16 16 16 16 16 16 17 17 17 17 17 17 17 17 17 17 17 17 17 17 17 17 17 17
15 15 15 15 15 15 15 15 15 15 15 15 15 15 15 15 15 15 15 15 16 16 16 16 16 17 17 17 17 17 17 17 17 17 17 17 17 17 17 17 17 17 17
15 15 14 15 14 14 15 15 15 15 15 15 15 15 15 15 15 15 15 15 16 16 16 16 16 16 16 16 16 17 17 17 17 17 17 17 17 17 17 17 17 17 17
15 15 15 15 14 14 15 15 15 15 15 15 15 15 15 15 15 15 15 15 15 16 16 16 16 16 16 16 16 16 17 17 17 17 17 17 17 17 17 17 17 17 17
15 15 15 15 15 14 14 14 14 15 15 15 15 15 15 15 15 15 15 15 15 15 15 16 16 16 16 16 16 16 16 16 17 17 17 17 17 17 17 17 17 17 17
15 15 15 14 15 14 14 14 14 14 15 15 15 15 15 15 15 15 15 15 15 15 15 15 16 16 16 16 16 16 16 16 16 16 16 17 17 17 17 17 17 17 17
15 15 14 14 15 15 15 14 15 14 14 15 15 16 16 16 15 15 15 15 15 15 15 15 15 16 16 16 16 16 16 16 16 16 16 16 17 17 17 17 17 17 17
14 14 14 14 14 14 14 14 14 14 14 14 14 15 16 16 15 15 15 15 15 15 15 15 15 15 15 16 16 16 16 16 16 16 16 16 16 17 17 17 17 17 17
14 14 14 14 14 14 14 14 14 14 14 14 14 14 14 14 15 15 15 15 15 15 15 15 15 15 15 15 15 16 16 16 16 16 16 16 16 16 17 17 17 17 17
14 14 14 14 14 14 14 14 14 14 14 14 14 14 14 14 14 15 15 15 15 15 15 14 15 15 15 15 15 15 15 16 16 16 16 16 16 16 16 16 16 16 17
14 14 14 14 14 14 14 14 14 14 14 14 14 13 13 14 14 14 14 15 15 14 14 14 14 14 15 15 15 15 15 15 16 16 16 16 16 16 16 16 16 16 16
14 14 14 14 14 14 13 13 13 13 13 13 13 13 13 13 13 13 14 14 14 14 14 14 14 14 14 14 14 15 15 15 15 15 15 16 16 16 16 16 16 16 16
14 14 14 14 13 13 13 13 13 13 13 13 13 13 13 13 13 13 13 13 14 15 14 14 14 14 14 14 14 14 14 15 15 15 15 15 15 16 16 16 16 16 16
14 14 14 13 13 13 13 13 13 13 13 13 12 12 13 13 12 13 13 13 13 14 14 14 13 13 13 14 14 14 14 14 15 15 15 15 15 15 15 16 16 16 16
14 13 13 13 13 13 13 13 13 13 12 12 12 12 12 12 12 12 12 12 12 13 13 13 13 13 13 13 13 13 14 14 14 15 15 15 15 15 15 15 15 15 15
13 13 13 13 13 13 13 13 12 12 12 12 12 12 12 12 12 12 12 12 12 12 12 12 13 13 12 13 13 13 13 13 14 14 14 14 15 15 15 15 15 15 15
13 13 13 13 12 12 12 12 12 12 12 12 12 11 11 11 11 11 11 11 11 11 12 12 12 12 12 12 12 13 13 13 13 14 14 14 14 14 14 14 14 15 15
13 13 13 12 12 12 12 12 12 12 11 11 11 11 11 11 11 11 11 11 11 11 11 11 11 12 12 12 12 12 12 12 13 13 13 13 14 14 14 14 14 14 14
13 13 12 12 12 12 12 12 12 11 11 11 11 11 11 11 11 11 11 11 11 11 11 11 11 11 11 11 11 12 12 12 12 12 13 13 13 13 13 14 14 14 14
13 12 12 12 12 12 12 12 12 11 11 11 11 11 11 11 11 11 10 10 10 10 10 10 10 11 11 11 11 11 11 11 12 12 12 12 12 12 13 13 13 13 14
13 12 12 12 12 12 12 12 12 11 11 11 11 10 10 10 10 10 10 10 10 10 10 10 10 10 10 10 10 10 10 11 11 11 11 12 12 12 12 12 13 13 13
12 12 12 12 11 12 12 12 11 11 11 10 10 10 10 10 10 10 10 10 10 10 10 9 9 9 10 10 10 10 10 10 10 11 11 11 11 11 12 12 12 13 13
12 12 12 11 12 11 12 11 11 11 10 10 10 10 10 10 10 10 9 9 9 9 9 9 9 9 9 9 9 9 9 10 10 10 10 10 11 11 11 12 12 12 12
12 12 12 11 11 11 11 11 11 10 10 10 10 10 10 9 9 9 9 9 9 9 9 9 9 9 9 9 9 9 9 9 9 10 10 10 10 11 11 11 11 12 12
12 12 12 11 11 11 11 11 11 10 10 9 9 9 9 9 9 9 9 8 8 8 8 8 8 8 9 8 9 8 8 8 9 9 10 10 10 10 10 11 11 11 11
Wind_Speed
5 5 5 5 6 6 5 5 5 5 5 4 4 3 3 3 2 3 4 7 7 7 6 5 4 3 3 3 3 3 3 3 4 5 5 6 7 7 8 8 9 10 9
6 5 5 5 6 6 6 5 5 5 4 4 4 4 3 3 2 2 3 3 6 7 7 6 5 4 4 4 3 3 3 2 4 5 5 5 6 7 8 8 8 8 8
6 5 5 5 6 6 6 5 5 5 4 4 4 4 3 4 3 4 3 3 3 6 7 7 6 5 5 4 4 4 3 3 5 5 5 5 5 6 6 7 7 7 7
6 5 5 5 6 6 5 4 5 5 5 5 4 4 4 4 4 4 3 3 4 4 6 8 7 7 6 4 3 4 4 4 5 5 5 5 5 5 6 6 6 6 7
7 6 5 5 6 5 5 5 5 5 5 4 4 4 4 4 4 4 4 4 5 4 5 6 6 6 6 5 4 4 4 4 4 5 5 4 4 4 5 5 5 6 7
7 6 5 6 6 5 5 5 5 5 4 4 4 4 4 4 4 5 4 4 4 5 5 5 4 5 6 6 5 3 4 3 4 4 4 4 3 3 4 5 5 6 6
7 6 5 6 5 5 5 6 5 5 5 4 2 3 3 4 6 4 4 4 5 5 5 5 4 4 3 5 5 4 3 3 3 3 4 4 4 3 3 4 5 6 6
7 6 6 5 5 5 5 6 5 4 4 5 4 2 1 2 4 5 4 4 5 5 4 5 4 3 3 3 6 6 4 2 2 2 2 4 4 4 4 4 4 5 6
8 7 7 6 6 6 6 6 6 6 5 5 6 4 3 3 3 2 4 5 5 5 4 5 5 4 4 3 3 5 5 4 1 1 1 3 4 5 5 5 5 6 6
7 7 6 6 6 6 6 6 6 5 5 4 4 4 4 4 3 2 2 5 5 5 6 5 5 5 5 4 4 5 4 4 3 1 1 2 4 5 6 6 6 7 8
7 7 6 6 6 6 7 7 7 6 5 5 5 4 4 3 3 3 3 4 4 4 5 5 4 5 5 4 4 5 4 3 3 3 2 2 3 4 6 6 6 7 8
4 6 6 6 6 6 6 6 6 7 6 6 5 4 4 4 4 4 4 4 4 4 4 4 3 4 4 4 5 6 4 3 3 3 3 3 3 4 5 7 7 8 8
4 5 5 5 5 6 6 6 6 6 7 6 6 5 5 4 4 4 4 4 4 3 3 2 3 3 4 4 4 5 3 3 3 3 3 3 4 4 5 6 7 7 8
3 4 4 5 5 6 5 5 5 6 6 6 6 6 4 5 4 4 4 5 4 3 3 4 3 4 5 4 5 5 3 3 4 4 4 4 4 5 5 6 6 6 7
2 3 4 4 5 5 5 5 5 6 6 6 6 5 5 4 4 4 4 4 5 5 4 4 4 5 5 5 5 6 5 4 4 5 5 4 4 5 5 6 6 7 7
3 2 3 4 4 5 5 5 4 5 5 5 4 5 5 5 4 4 4 4 4 5 4 4 5 5 6 5 5 6 6 5 5 5 5 5 5 5 5 6 7 8 8
2 2 2 3 4 4 4 4 4 5 5 5 5 5 5 6 5 5 4 4 4 5 5 5 5 6 6 6 6 6 6 6 5 3 5 5 5 6 6 6 7 8 8
2 2 2 2 3 3 3 4 4 4 5 5 5 5 6 5 5 5 5 5 5 5 6 7 6 6 7 7 6 7 6 6 6 4 4 5 6 7 7 7 7 8 8
2 1 1 1 2 2 3 3 3 4 4 5 5 5 6 6 6 5 6 6 5 5 6 7 7 6 6 6 7 7 7 6 6 5 5 6 7 7 7 7 8 8 9
1 1 0 1 1 2 2 3 4 4 4 5 5 5 6 6 7 7 6 7 7 7 7 7 7 6 6 7 7 7 7 6 6 6 6 6 6 8 8 8 9 9 9
2 1 1 1 2 2 3 5 5 5 5 5 5 5 5 5 7 7 7 8 8 7 7 7 7 7 7 7 7 7 8 7 7 6 6 6 5 6 7 9 10 10 10
2 2 2 2 2 2 3 5 7 6 6 6 6 6 6 5 5 6 7 8 9 9 9 8 8 9 9 9 7 8 8 9 8 5 6 7 6 7 7 7 7 8 10
3 2 2 2 3 2 2 5 7 7 6 6 7 7 6 6 7 8 7 9 9 9 10 11 11 11 11 10 10 10 9 10 10 8 7 9 8 8 8 7 8 10 10
3 3 3 3 3 2 3 5 7 7 6 6 6 7 7 7 7 9 10 11 11 10 9 10 11 11 11 10 11 11 12 11 11 9 8 9 9 9 8 8 9 11 12
3 3 3 3 4 3 2 4 7 6 6 7 6 7 8 8 6 9 11 11 12 11 8 10 13 13 14 14 13 10 10 10 11 10 8 8 9 9 9 9 8 12 13
4 4 3 4 4 4 1 4 7 5 6 7 6 7 6 7 8 10 11 12 13 12 12 12 11 12 13 12 13 12 10 11 11 11 8 8 9 8 8 8 7 8 9
Wind_Direction
30 27 29 23 18 14 14 9 8 15 6 8 8 12 16 19 12 23 57 53 35 33 32 28 30 42 34 40 46 61 63 72 88 98 99 92 89 91 89 94 99 100 103
29 21 30 28 21 15 12 4 15 6 10 17 20 28 17 28 27 30 33 69 72 50 37 34 34 40 43 40 47 58 56 76 110 109 108 105 97 95 93 94 100 103 107
27 27 24 27 21 15 16 11 16 10 21 29 33 33 38 26 18 31 31 19 56 79 58 45 43 45 47 41 49 63 55 94 118 118 114 116 115 111 106 101 104 109 114
31 27 25 26 17 16 20 21 17 21 30 31 32 33 42 40 28 26 32 44 38 38 71 60 51 53 49 41 52 65 68 90 103 115 119 122 126 122 113 108 112 112 111
23 32 25 18 18 19 21 21 28 19 31 32 41 43 44 44 34 28 35 40 44 36 41 68 73 66 53 45 52 67 76 88 104 118 125 127 126 131 131 124 122 118 118
22 23 26 22 18 25 23 24 30 28 26 23 39 53 54 51 46 37 31 39 35 36 35 34 53 76 72 57 51 65 79 89 102 114 122 130 134 134 141 140 139 135 131
26 29 24 26 20 28 23 23 24 31 32 19 30 65 84 62 45 46 34 27 40 34 31 38 36 38 62 88 66 64 78 84 98 121 143 148 151 148 146 145 148 149 145
33 30 32 34 32 30 31 27 24 19 29 20 3 355 41 92 50 43 39 31 30 30 26 29 29 45 36 55 75 68 59 64 100 125 160 167 165 167 174 180 174 167 164
37 34 36 36 33 35 35 27 23 22 21 27 23 5 359 15 4 40 30 28 28 24 23 25 21 30 37 43 59 74 56 39 38 161 182 190 184 187 192 196 198 193 184
42 37 39 38 41 40 39 33 32 25 16 23 31 24 16 6 338 353 21 27 24 26 21 20 24 27 29 40 54 51 46 29 14 351 252 217 202 201 202 205 207 204 196
43 41 41 42 43 43 41 39 35 29 26 20 18 16 17 6 345 340 343 353 10 23 18 15 20 24 22 26 32 38 37 19 3 349 322 282 238 221 218 215 214 211 208
50 48 44 46 45 43 41 38 39 41 33 28 21 20 11 4 357 347 331 337 349 4 7 12 14 19 19 21 32 27 18 18 5 350 335 316 281 250 238 230 225 222 218
55 47 44 45 45 42 41 39 42 38 40 36 29 22 18 11 354 339 330 332 334 336 350 10 19 16 13 14 27 8 6 357 341 327 312 306 291 268 248 239 237 234 227
50 48 45 49 48 42 41 41 38 40 36 38 35 28 19 14 1 351 340 330 325 331 344 354 5 13 6 358 11 332 329 337 317 304 293 286 284 269 252 238 237 238 235
58 56 58 56 53 46 40 38 39 38 34 30 27 28 23 19 7 356 343 334 326 320 328 341 344 352 348 349 346 327 326 346 312 293 287 283 278 267 255 243 238 233 230
67 74 62 58 53 48 45 39 37 28 31 35 18 18 16 12 6 358 345 336 328 318 314 328 326 329 337 330 339 326 321 308 285 278 279 282 276 269 257 248 241 237 232
93 86 70 57 51 43 41 41 27 25 18 19 17 15 11 6 357 354 346 339 332 321 307 310 315 318 317 318 322 319 313 304 298 275 272 273 271 266 255 249 243 237 233
96 79 77 63 50 36 28 25 19 11 6 3 2 359 358 360 350 345 341 336 335 326 313 311 309 315 314 314 314 311 308 304 301 296 265 264 263 258 253 249 246 242 237
121 101 72 55 41 19 9 3 358 351 350 349 346 344 344 344 340 342 333 329 327 326 319 307 309 312 305 305 308 302 298 296 293 282 258 250 250 249 249 247 244 243 240
164 150 64 20 356 342 336 342 339 331 331 332 331 331 332 333 333 333 328 326 323 319 316 311 308 307 305 305 301 301 301 298 292 290 283 272 253 245 243 243 241 240 239
208 218 252 293 319 315 337 333 322 317 315 316 316 318 324 329 329 323 321 321 319 312 309 307 307 308 306 305 305 306 300 299 290 284 284 276 263 258 250 237 235 235 235
217 223 252 272 298 316 5 335 313 307 307 306 309 310 309 300 300 290 296 302 304 302 306 304 300 299 303 304 304 297 297 295 291 288 287 283 275 270 263 257 236 229 233
212 226 246 265 282 327 348 314 309 304 303 307 308 307 308 309 302 303 291 272 275 273 280 289 292 295 297 302 301 296 291 290 290 289 284 277 273 270 265 258 228 227 232
211 229 249 263 283 307 322 310 302 292 298 300 300 301 301 305 318 317 308 301 298 291 285 282 286 290 293 296 293 292 291 286 284 275 266 271 272 270 268 258 229 224 227
222 233 247 263 271 278 307 304 293 293 292 295 297 298 302 303 332 317 303 300 299 296 277 268 280 283 284 280 279 281 281 279 280 276 264 263 271 274 271 262 239 220 222
226 237 244 258 268 281 306 300 293 290 295 298 298 295 299 304 319 310 301 302 300 302 301 291 278 270 272 267 256 262 271 275 278 279 269 263 269 275 274 262 252 239 231
Height
1552 1551 1550 1547 1547 1545 1544 1542 1541 1540 1539 1538 1537 1537 1537 1536 1536 1536 1536 1534 1534 1534 1534 1533 1533 1533 1533 1532 1532 1532 1531 1531 1530 1530 1531 1530 1530 1530 1531 1531 1531 1532 1533
1553 1551 1551 1548 1547 1546 1544 1543 1542 1540 1540 1538 1538 1537 1537 1537 1537 1536 1536 1535 1534 1534 1534 1534 1533 1533 1533 1533 1533 1532 1531 1530 1530 1531 1532 1532 1533 1533 1533 1534 1534 1534 1534
1554 1552 1552 1550 1548 1547 1546 1544 1543 1541 1540 1539 1538 1538 1537 1537 1537 1537 1536 1536 1536 1535 1534 1534 1534 1534 1533 1533 1533 1532 1531 1529 1530 1532 1533 1534 1535 1535 1536 1536 1536 1537 1537
1555 1553 1552 1551 1549 1548 1546 1545 1544 1543 1542 1540 1540 1539 1538 1537 1537 1537 1537 1537 1536 1536 1535 1535 1534 1534 1534 1534 1534 1533 1532 1531 1532 1534 1535 1536 1537 1537 1538 1538 1538 1539 1539
1556 1555 1553 1551 1550 1549 1547 1546 1544 1544 1543 1541 1541 1540 1539 1538 1538 1538 1538 1537 1537 1536 1536 1535 1535 1535 1534 1534 1534 1534 1534 1534 1535 1535 1536 1537 1538 1539 1539 1540 1540 1540 1541
1557 1556 1554 1553 1551 1550 1548 1547 1546 1544 1543 1543 1542 1541 1541 1540 1539 1538 1538 1538 1537 1537 1536 1536 1536 1536 1535 1535 1535 1535 1536 1536 1536 1537 1537 1538 1539 1540 1541 1541 1542 1542 1543
1557 1556 1555 1554 1552 1551 1550 1549 1547 1546 1545 1544 1544 1543 1542 1542 1541 1539 1539 1539 1538 1537 1537 1537 1537 1536 1536 1536 1536 1536 1536 1537 1537 1538 1539 1539 1540 1541 1541 1542 1542 1543 1544
1558 1557 1556 1555 1553 1552 1551 1549 1548 1547 1546 1545 1545 1544 1544 1544 1542 1541 1540 1539 1539 1538 1538 1537 1537 1537 1537 1537 1536 1536 1537 1537 1538 1538 1539 1540 1540 1541 1542 1543 1543 1544 1545
1559 1558 1557 1556 1555 1554 1552 1550 1549 1548 1548 1547 1546 1546 1545 1544 1544 1543 1541 1540 1539 1539 1538 1537 1537 1537 1537 1537 1537 1537 1537 1537 1538 1538 1539 1540 1541 1541 1542 1543 1544 1545 1546
1560 1558 1558 1557 1556 1554 1553 1552 1550 1550 1549 1548 1547 1546 1546 1545 1545 1544 1543 1542 1540 1539 1538 1538 1537 1537 1537 1537 1537 1537 1537 1537 1538 1538 1539 1539 1540 1541 1542 1543 1544 1545 1545
1560 1559 1558 1558 1557 1555 1554 1552 1551 1550 1549 1549 1548 1547 1546 1546 1545 1545 1543 1543 1542 1541 1539 1538 1538 1537 1537 1537 1536 1536 1536 1537 1537 1537 1538 1538 1539 1540 1541 1542 1543 1543 1544
1561 1560 1559 1558 1557 1556 1555 1553 1552 1551 1550 1549 1548 1548 1547 1547 1546 1545 1544 1543 1542 1541 1540 1539 1538 1538 1537 1536 1536 1536 1536 1536 1536 1536 1537 1537 1538 1538 1539 1540 1541 1542 1543
1561 1560 1559 1559 1558 1557 1555 1554 1553 1552 1551 1550 1549 1548 1547 1547 1546 1545 1544 1543 1542 1541 1540 1540 1539 1537 1537 1536 1535 1535 1535 1535 1535 1535 1535 1536 1536 1537 1537 1538 1539 1540 1541
1561 1561 1560 1559 1558 1557 1556 1555 1554 1553 1552 1551 1550 1548 1547 1547 1546 1545 1544 1543 1542 1541 1540 1540 1539 1537 1536 1535 1534 1534 1533 1533 1533 1533 1533 1534 1534 1535 1535 1536 1537 1537 1538
1561 1561 1560 1560 1559 1558 1557 1556 1555 1554 1552 1551 1550 1549 1548 1547 1546 1545 1544 1543 1543 1541 1540 1539 1538 1537 1535 1534 1533 1532 1532 1531 1531 1531 1531 1531 1531 1532 1532 1533 1534 1535 1535
1560 1560 1560 1560 1559 1558 1557 1556 1555 1554 1553 1551 1550 1549 1548 1547 1546 1544 1543 1542 1542 1541 1539 1538 1537 1535 1534 1533 1531 1530 1529 1528 1528 1528 1528 1528 1528 1529 1529 1530 1530 1531 1532
1560 1560 1560 1560 1559 1558 1558 1556 1555 1554 1553 1552 1551 1550 1548 1546 1545 1544 1543 1541 1540 1539 1538 1536 1535 1534 1532 1531 1529 1528 1527 1526 1526 1525 1524 1524 1525 1525 1525 1526 1527 1528 1528
1560 1560 1560 1560 1559 1558 1557 1556 1555 1554 1553 1552 1551 1549 1548 1546 1544 1543 1542 1541 1539 1538 1537 1534 1533 1532 1530 1528 1527 1525 1524 1524 1523 1522 1521 1521 1521 1521 1521 1522 1522 1523 1524
1560 1560 1560 1559 1558 1558 1557 1556 1555 1554 1553 1551 1550 1548 1547 1545 1544 1543 1541 1540 1538 1536 1534 1533 1531 1529 1527 1526 1524 1523 1522 1520 1519 1519 1517 1517 1517 1516 1517 1517 1518 1518 1519
1559 1559 1559 1558 1558 1557 1556 1555 1554 1553 1552 1550 1548 1547 1545 1544 1543 1541 1539 1538 1536 1535 1533 1531 1529 1527 1525 1523 1522 1520 1519 1517 1516 1515 1514 1513 1512 1512 1512 1512 1513 1513 1514
1558 1558 1557 1557 1556 1555 1555 1553 1552 1551 1550 1549 1547 1545 1543 1541 1540 1538 1537 1535 1534 1532 1531 1529 1526 1524 1522 1521 1519 1517 1515 1514 1512 1511 1510 1509 1509 1508 1507 1507 1507 1508 1508
1556 1556 1556 1555 1554 1553 1552 1551 1550 1549 1548 1546 1545 1543 1541 1539 1537 1535 1534 1532 1531 1529 1528 1526 1524 1522 1520 1518 1516 1514 1512 1511 1509 1508 1506 1505 1505 1503 1503 1503 1502 1503 1503
1554 1554 1553 1553 1552 1551 1550 1549 1547 1546 1545 1544 1542 1541 1539 1537 1535 1533 1531 1529 1527 1525 1524 1522 1520 1518 1516 1514 1512 1510 1509 1507 1505 1503 1502 1500 1500 1498 1498 1498 1497 1497 1497
1552 1551 1551 1550 1549 1548 1547 1546 1545 1544 1542 1541 1539 1538 1536 1534 1531 1529 1527 1525 1524 1522 1519 1518 1516 1513 1511 1509 1507 1506 1504 1501 1499 1498 1498 1495 1494 1493 1493 1492 1491 1491 1492
1549 1549 1548 1547 1546 1545 1544 1543 1542 1540 1539 1537 1536 1534 1532 1530 1527 1525 1523 1521 1518 1516 1514 1511 1509 1507 1505 1503 1501 1500 1498 1497 1494 1493 1492 1491 1489 1488 1487 1486 1485 1485 1485
1546 1545 1545 1544 1543 1542 1541 1539 1538 1537 1536 1534 1532 1530 1528 1525 1523 1521 1519 1516 1513 1511 1508 1505 1503 1501 1499 1497 1495 1494 1493 1491 1489 1487 1486 1485 1484 1483 1481 1480 1480 1479 1479